Weather History for PAWG - November, 2010

Change the Weather History Date:

Wednesday, November 3, 2010

  Actual Average Record
Temperature  
Mean Temperature 52 °F -  
Max Temperature 59 °F 46 °F 65 °F (1949)
Min Temperature 44 °F 36 °F 16 °F (1973)
Degree Days  
Heating Degree Days 14    
Growing Degree Days 2 (Base 50)    
Moisture  
Dew Point 39 °F    
Average Humidity 65    
Maximum Humidity 93    
Minimum Humidity 42    
Precipitation  
Precipitation 0.00 in - - ()
Sea Level Pressure  
Sea Level Pressure 29.98 in    
Wind  
Wind Speed 14 mph (ESE)    
Max Wind Speed 26 mph    
Max Gust Speed 34 mph    
Visibility 10 miles    
Events      
Averages and records for this station are not official NWS values.
T = Trace of Precipitation, MM = Missing Value Source: NWS Daily Summary

Daily Weather History Graph

Daily Weather History Graph

Search for Another Location

Airport or City:

Trip Planner

Search our weather history database for the weather conditions in past years. The results will help you decide how hot, cold, wet, or windy it might be!

Date:

Astronomy

Nov. 03, 2010 Rise Set
Actual Time 8:02 AM AKDT 5:02 PM AKDT
Civil Twilight 7:22 AM AKDT 5:42 PM AKDT
Nautical Twilight 6:37 AM AKDT 6:27 PM AKDT
Astronomical Twilight 5:53 AM AKDT 7:11 PM AKDT
Moon 4:47 AM AKDT (11/3) 3:32 PM AKDT (11/3)
Length of Visible Light 10h 20m
Length of Day
8h 59m
Waning Crescent, 8% of the Moon is Illuminated
Nov 3
Waning Crescent
Nov 5
New
Nov 13
First Quarter
Nov 21
Full
Nov 28
Last Quarter

Hourly Weather History & Observations

Time (AKDT) Temp. Windchill Dew Point Humidity Pressure Visibility Wind Dir Wind Speed Gust Speed Precip Events Conditions
12:16 AM 46.4 °F 40.4 °F 39.2 °F 76% 30.29 in 10.0 mi East 13.8 mph - N/A   Overcast
12:36 AM 44.6 °F 38.8 °F 39.2 °F 81% 30.29 in 10.0 mi East 11.5 mph - N/A   Overcast
12:56 AM 44.6 °F 38.4 °F 39.2 °F 81% 30.27 in 10.0 mi East 12.7 mph - N/A   Overcast
1:16 AM 44.6 °F 38.8 °F 39.2 °F 81% 30.26 in 10.0 mi East 11.5 mph - N/A   Overcast
1:36 AM 46.4 °F 40.4 °F 39.2 °F 76% 30.24 in 10.0 mi East 13.8 mph - N/A   Overcast
1:56 AM 46.4 °F 40.4 °F 39.2 °F 76% 30.22 in 10.0 mi East 13.8 mph - N/A   Overcast
2:16 AM 46.4 °F 41.5 °F 39.2 °F 76% 30.21 in 10.0 mi East 10.4 mph - N/A   Overcast
2:36 AM 46.4 °F 41.1 °F 39.2 °F 76% 30.20 in 10.0 mi ENE 11.5 mph - N/A   Overcast
2:56 AM 48.2 °F - 39.2 °F 71% 30.18 in 10.0 mi East 12.7 mph - N/A   Overcast
3:16 AM 48.2 °F - 39.2 °F 71% 30.16 in 10.0 mi East 12.7 mph - N/A   Overcast
3:36 AM 46.4 °F 41.9 °F 41.0 °F 81% 30.16 in 10.0 mi East 9.2 mph - N/A   Overcast
3:56 AM 48.2 °F - 41.0 °F 76% 30.16 in 10.0 mi ESE 12.7 mph 16.1 mph N/A   Overcast
4:16 AM 48.2 °F - 39.2 °F 71% 30.16 in 10.0 mi SE 11.5 mph - N/A   Overcast
4:36 AM 46.4 °F 40.7 °F 41.0 °F 81% 30.15 in 10.0 mi East 12.7 mph 17.3 mph N/A   Overcast
4:56 AM 44.6 °F 38.8 °F 41.0 °F 87% 30.13 in 8.0 mi East 11.5 mph - N/A   Overcast
5:16 AM 44.6 °F 38.8 °F 42.8 °F 93% 30.12 in 10.0 mi East 11.5 mph - N/A   Overcast
5:36 AM 44.6 °F 38.4 °F 41.0 °F 87% 30.10 in 10.0 mi East 12.7 mph - N/A   Overcast
5:56 AM 46.4 °F 40.7 °F 41.0 °F 81% 30.08 in 10.0 mi East 12.7 mph - N/A   Overcast
6:16 AM 46.4 °F 41.5 °F 39.2 °F 76% 30.08 in 10.0 mi ESE 10.4 mph - N/A   Overcast
6:36 AM 46.4 °F 40.7 °F 39.2 °F 76% 30.07 in 10.0 mi ESE 12.7 mph 17.3 mph N/A   Overcast
6:56 AM 46.4 °F 40.7 °F 39.2 °F 76% 30.06 in 10.0 mi SE 12.7 mph 18.4 mph N/A   Overcast
7:16 AM 46.4 °F 41.5 °F 39.2 °F 76% 30.06 in 10.0 mi ESE 10.4 mph 16.1 mph N/A   Overcast
7:36 AM 46.4 °F 40.4 °F 39.2 °F 76% 30.04 in 10.0 mi ESE 13.8 mph 20.7 mph N/A   Overcast
7:56 AM 46.4 °F 40.4 °F 39.2 °F 76% 30.04 in 10.0 mi ESE 13.8 mph 23.0 mph N/A   Overcast
8:16 AM 46.4 °F 39.2 °F 39.2 °F 76% 30.03 in 10.0 mi ESE 18.4 mph 29.9 mph N/A   Overcast
8:36 AM 46.4 °F 40.1 °F 39.2 °F 76% 30.02 in 10.0 mi ESE 15.0 mph 20.7 mph N/A   Overcast
8:56 AM 46.4 °F 39.2 °F 39.2 °F 76% 30.00 in 10.0 mi SE 18.4 mph 24.2 mph N/A   Overcast
9:16 AM 48.2 °F - 39.2 °F 71% 29.99 in 10.0 mi SE 18.4 mph 28.8 mph N/A   Overcast
9:36 AM 48.2 °F - 39.2 °F 71% 29.98 in 10.0 mi SE 23.0 mph 29.9 mph N/A   Overcast
9:56 AM 50.0 °F - 39.2 °F 66% 29.98 in 10.0 mi SE 23.0 mph 34.5 mph N/A   Overcast
10:16 AM 50.0 °F - 39.2 °F 66% 29.96 in 10.0 mi SSE 24.2 mph 34.5 mph N/A   Overcast
10:36 AM 51.8 °F - 39.2 °F 62% 29.96 in 10.0 mi SE 19.6 mph 31.1 mph N/A   Overcast
10:56 AM 51.8 °F - 39.2 °F 62% 29.95 in 10.0 mi SE 26.5 mph 29.9 mph N/A   Overcast
11:16 AM 51.8 °F - 39.2 °F 62% 29.95 in 10.0 mi SE 20.7 mph 24.2 mph N/A   Overcast
11:36 AM 51.8 °F - 39.2 °F 62% 29.94 in 10.0 mi SE 20.7 mph 26.5 mph N/A   Overcast
11:56 AM 51.8 °F - 41.0 °F 67% 29.93 in 10.0 mi ESE 16.1 mph 27.6 mph N/A   Overcast
12:16 PM 51.8 °F - 41.0 °F 67% 29.92 in 10.0 mi ESE 15.0 mph 19.6 mph N/A   Overcast
12:36 PM 53.6 °F - 41.0 °F 62% 29.91 in 10.0 mi ESE 15.0 mph 21.9 mph N/A   Overcast
12:56 PM 53.6 °F - 41.0 °F 62% 29.90 in 10.0 mi East 10.4 mph - N/A   Overcast
1:16 PM 53.6 °F - 39.2 °F 58% 29.89 in 10.0 mi ESE 12.7 mph 21.9 mph N/A   Overcast
1:36 PM 55.4 °F - 39.2 °F 54% 29.87 in 10.0 mi SE 9.2 mph - N/A   Overcast
1:56 PM 55.4 °F - 39.2 °F 54% 29.87 in 10.0 mi SE 16.1 mph 21.9 mph N/A   Overcast
2:16 PM 55.4 °F - 39.2 °F 54% 29.84 in 10.0 mi SE 15.0 mph 21.9 mph N/A   Overcast
2:36 PM 55.4 °F - 39.2 °F 54% 29.81 in 10.0 mi ESE 12.7 mph - N/A   Overcast
2:56 PM 57.2 °F - 37.4 °F 48% 29.78 in 10.0 mi SE 20.7 mph 28.8 mph N/A   Mostly Cloudy
3:16 PM 57.2 °F - 37.4 °F 48% 29.77 in 10.0 mi SE 15.0 mph 33.4 mph N/A   Mostly Cloudy
3:36 PM 57.2 °F - 37.4 °F 48% 29.76 in 10.0 mi SE 16.1 mph 28.8 mph N/A   Mostly Cloudy
3:56 PM 59.0 °F - 35.6 °F 42% 29.76 in 10.0 mi SE 17.3 mph 31.1 mph N/A   Overcast
4:16 PM 59.0 °F - 35.6 °F 42% 29.74 in 10.0 mi SE 23.0 mph 29.9 mph N/A   Overcast
4:36 PM 59.0 °F - 37.4 °F 45% 29.74 in 10.0 mi SE 16.1 mph 25.3 mph N/A   Overcast
4:56 PM 59.0 °F - 37.4 °F 45% 29.72 in 10.0 mi SE 19.6 mph 23.0 mph N/A   Overcast
5:16 PM 59.0 °F - 37.4 °F 45% 29.71 in 10.0 mi SSE 20.7 mph 28.8 mph N/A   Overcast
5:36 PM 59.0 °F - 37.4 °F 45% 29.71 in 10.0 mi SE 19.6 mph 25.3 mph N/A   Overcast
5:56 PM 59.0 °F - 37.4 °F 45% 29.71 in 10.0 mi SE 17.3 mph - N/A   Overcast
6:16 PM 59.0 °F - 37.4 °F 45% 29.70 in 10.0 mi SE 16.1 mph 21.9 mph N/A   Overcast
6:36 PM 59.0 °F - 35.6 °F 42% 29.69 in 10.0 mi ESE 16.1 mph 27.6 mph N/A   Overcast
6:56 PM 59.0 °F - 37.4 °F 45% 29.68 in 10.0 mi SE 17.3 mph 21.9 mph N/A   Overcast
7:16 PM 59.0 °F - 37.4 °F 45% 29.67 in 10.0 mi SE 18.4 mph 25.3 mph N/A   Overcast
7:36 PM 60.8 °F - 37.4 °F 42% 29.67 in 10.0 mi SE 15.0 mph 26.5 mph N/A   Overcast
7:56 PM 60.8 °F - 37.4 °F 42% 29.66 in 10.0 mi SE 16.1 mph 24.2 mph N/A   Overcast
8:16 PM 59.0 °F - 37.4 °F 45% 29.64 in 10.0 mi ESE 12.7 mph 26.5 mph N/A   Overcast
8:36 PM 57.2 °F - 39.2 °F 51% 29.64 in 10.0 mi SE 13.8 mph 21.9 mph N/A   Overcast
8:56 PM 57.2 °F - 37.4 °F 48% 29.64 in 10.0 mi ESE 12.7 mph 26.5 mph N/A   Overcast
9:16 PM 55.4 °F - 39.2 °F 54% 29.62 in 10.0 mi ESE 15.0 mph 19.6 mph N/A   Overcast
9:36 PM 57.2 °F - 39.2 °F 51% 29.61 in 10.0 mi ESE 18.4 mph 28.8 mph N/A   Overcast
9:56 PM 57.2 °F - 39.2 °F 51% 29.59 in 10.0 mi SE 17.3 mph 21.9 mph N/A   Overcast
10:16 PM 57.2 °F - 39.2 °F 51% 29.59 in 10.0 mi ESE 18.4 mph 29.9 mph N/A   Overcast
10:36 PM 55.4 °F - 42.8 °F 63% 29.59 in 10.0 mi ESE 18.4 mph 25.3 mph N/A   Overcast
10:56 PM 53.6 °F - 42.8 °F 67% 29.60 in 10.0 mi SSE 25.3 mph 35.7 mph N/A   Overcast
11:16 PM 51.8 °F - 44.6 °F 76% 29.59 in 9.0 mi ESE 15.0 mph 27.6 mph N/A   Overcast
11:36 PM 51.8 °F - 44.6 °F 76% 29.58 in 8.0 mi ESE 13.8 mph 24.2 mph N/A   Overcast
11:56 PM 51.8 °F - 44.6 °F 76% 29.56 in 8.0 mi ESE 17.3 mph 27.6 mph N/A   Overcast